Prescott, AZ

9:19 AM MST on October 23, 2019 (GMT -0700)
Love

Weather History for KPRC - August, 2019

Change the Weather History Date:

Thursday, August 1, 2019

  Actual Average Record
Temperature  
Mean Temperature 77 °F 75 °F  
Max Temperature 91 °F 88 °F 99 °F (1993)
Min Temperature 63 °F 62 °F 52 °F (1950)
Degree Days  
Heating Degree Days 0    
Month to date heating degree days 0  
Since 1 July heating degree days 0  
Cooling Degree Days 12    
Month to date cooling degree days 12  
Year to date cooling degree days 580  
Growing Degree Days 26 (Base 50)    
Moisture  
Dew Point 55 °F    
Average Humidity 50    
Maximum Humidity 90    
Minimum Humidity 21    
Precipitation  
Precipitation 0.00 in 0.08 in 0.77 in (2018)
Month to date precipitation 0.00 0.08  
Year to date precipitation 7.81 7.12  
Sea Level Pressure  
Sea Level Pressure 30.01 in    
Wind  
Wind Speed 4 mph (SSW)    
Max Wind Speed 16 mph    
Max Gust Speed 21 mph    
Visibility 10 miles    
Events Thunderstorm    
T = Trace of Precipitation, MM = Missing Value Source: NWS Daily Summary

Daily Weather History Graph

Daily Weather History Graph

Search for Another Location

Airport or City:

Astronomy

Aug. 01, 2019 Rise Set
Actual Time 5:39 AM MST 7:31 PM MST
Civil Twilight 5:12 AM MST 7:59 PM MST
Nautical Twilight 4:38 AM MST 8:32 PM MST
Astronomical Twilight 4:02 AM MST 9:08 PM MST
Moon 6:09 AM MST (8/1) 8:22 PM MST (8/1)
Length of Visible Light 14h 47m
Length of Day
13h 52m
New Moon, 1% of the Moon is Illuminated
Aug 1
New Moon
Aug 7
First Quarter
Aug 15
Full
Aug 23
Last Quarter
Aug 30
New

Hourly Weather History & Observations

Time (MST) Temp. Heat Index Dew Point Humidity Pressure Visibility Wind Dir Wind Speed Gust Speed Precip Events Conditions
12:53 AM 68.0 °F - 63.0 °F 84% 29.99 in 10.0 mi Calm Calm - N/A   Clear
1:53 AM 64.0 °F - 61.0 °F 90% 29.99 in 10.0 mi Calm Calm - N/A   Clear
2:53 AM 64.0 °F - 60.1 °F 87% 29.99 in 10.0 mi SSW 3.5 mph - N/A   Clear
3:53 AM 64.0 °F - 60.1 °F 87% 30.00 in 10.0 mi South 5.8 mph - N/A   Clear
4:53 AM 64.0 °F - 59.0 °F 84% 30.00 in 10.0 mi Calm Calm - N/A   Clear
5:53 AM 63.0 °F - 59.0 °F 87% 30.02 in 10.0 mi Calm Calm - N/A   Clear
6:53 AM 66.0 °F - 62.1 °F 87% 30.04 in 10.0 mi Calm Calm - N/A   Clear
7:53 AM 71.1 °F - 61.0 °F 70% 30.04 in 10.0 mi Calm Calm - N/A   Clear
8:53 AM 75.0 °F - 60.1 °F 60% 30.03 in 10.0 mi NE 4.6 mph - N/A   Clear
9:53 AM 80.1 °F 80.4 °F 57.0 °F 45% 30.03 in 10.0 mi North 5.8 mph - N/A   Scattered Clouds
10:53 AM 81.0 °F 80.7 °F 55.0 °F 41% 30.02 in 10.0 mi North - - N/A   Partly Cloudy
11:53 AM 84.9 °F - 52.0 °F 32% 29.99 in 10.0 mi Variable 4.6 mph - N/A   Clear
12:53 PM 84.9 °F - 51.1 °F 31% 29.97 in 10.0 mi North 8.1 mph - N/A   Scattered Clouds
1:53 PM 87.1 °F - 48.9 °F 27% 29.95 in 10.0 mi Calm Calm - N/A   Partly Cloudy
2:53 PM 89.1 °F - 50.0 °F 26% 29.91 in 10.0 mi Variable 3.5 mph - N/A   Scattered Clouds
3:53 PM 89.1 °F - 48.9 °F 25% 29.90 in 10.0 mi NW 5.8 mph - N/A   Partly Cloudy
4:53 PM 90.0 °F - 45.0 °F 21% 29.89 in 10.0 mi Variable 3.5 mph - N/A   Scattered Clouds
5:53 PM 86.0 °F 84.0 °F 53.1 °F 32% 29.90 in 10.0 mi WNW 11.5 mph 19.6 mph N/A   Mostly Cloudy
6:21 PM 86.0 °F - 52.0 °F 31% 30.16 in 10.0 mi West 11.5 mph - N/A Thunderstorm Scattered Clouds
6:36 PM 86.0 °F - 52.0 °F 31% 30.17 in 10.0 mi WNW 8.1 mph - N/A Thunderstorm Mostly Cloudy
6:44 PM 86.0 °F - 51.8 °F 31% 30.17 in 10.0 mi NE 8.1 mph 17.3 mph N/A Thunderstorm Thunderstorm
6:53 PM 84.2 °F 82.8 °F 53.6 °F 35% 29.93 in 10.0 mi East 12.7 mph 20.7 mph N/A Thunderstorm Mostly Cloudy
7:14 PM 81.0 °F 80.4 °F 53.1 °F 38% 30.18 in 10.0 mi SE 11.5 mph - N/A Thunderstorm Thunderstorm
7:29 PM 81.0 °F - 52.0 °F 36% 30.18 in 10.0 mi SSE 13.8 mph - N/A Thunderstorm Clear
7:36 PM 81.0 °F - 51.1 °F 35% 30.18 in 10.0 mi SSE 11.5 mph - N/A   Mostly Cloudy
7:53 PM 80.1 °F - 51.1 °F 36% 29.92 in 10.0 mi South 4.6 mph - N/A   Mostly Cloudy
8:53 PM 78.1 °F - 53.1 °F 42% 29.93 in 10.0 mi SSW 5.8 mph - N/A   Partly Cloudy
9:53 PM 75.0 °F - 55.9 °F 51% 29.94 in 10.0 mi South 3.5 mph - N/A   Clear
10:53 PM 73.9 °F - 55.9 °F 53% 29.94 in 10.0 mi Calm Calm - N/A   Clear
11:53 PM 71.1 °F - 57.0 °F 61% 29.93 in 10.0 mi Calm Calm - N/A   Clear